This is the latest recevied weather packets stored in our database for station/object KC0RPY. If no packets are shown the sender has not sent any weather packets the latest 10 day(s).
| Time | Temp. | Humidity | Pressure | Rain* | Wind** | Luminosity | Snow |
|---|---|---|---|---|---|---|---|
| 1777574910 | 17.22° C | 54% | 1017.7 hPa | 0 mm | - | 195 W/m² | - |
| 1777574607 | 17.22° C | 52% | 1018.1 hPa | 0 mm | - | 206 W/m² | - |
| 1777574302 | 17.22° C | 53% | 1017.7 hPa | 0 mm | - | 256 W/m² | - |
| 1777573993 | 17.78° C | 52% | 1017.7 hPa | 0 mm | - | 295 W/m² | - |
| 1777573687 | 18.33° C | 52% | 1018.1 hPa | 0 mm | - | 384 W/m² | - |
| 1777573384 | 17.78° C | 51% | 1018.1 hPa | 0 mm | - | 383 W/m² | - |
| 1777573080 | 17.78° C | 50% | 1018.1 hPa | 0 mm | - | 767 W/m² | - |
| 1777572777 | 17.78° C | 50% | 1018.1 hPa | 0 mm | - | 724 W/m² | - |
| 1777572477 | 17.22° C | 52% | 1018.1 hPa | 0 mm | - | 399 W/m² | - |
| 1777572173 | 17.78° C | 52% | 1018.1 hPa | 0 mm | - | 330 W/m² | - |
| 1777571868 | 17.78° C | 52% | 1018.8 hPa | 0 mm | - | 705 W/m² | - |
| 1777571564 | 17.22° C | 52% | 1018.1 hPa | 0 mm | - | 633 W/m² | - |
| 1777571261 | 17.78° C | 50% | 1018.5 hPa | 0 mm | - | 593 W/m² | - |
| 1777570957 | 17.78° C | 50% | 1018.8 hPa | 0 mm | - | 708 W/m² | - |
| 1777570653 | 17.22° C | 50% | 1018.8 hPa | 0 mm | - | 806 W/m² | - |
| 1777570350 | 17.22° C | 50% | 1019.1 hPa | 0 mm | - | 442 W/m² | - |
| 1777570046 | 17.22° C | 52% | 1018.8 hPa | 0 mm | - | 435 W/m² | - |
| 1777569742 | 17.78° C | 53% | 1019.1 hPa | 0 mm | - | 299 W/m² | - |
| 1777569437 | 17.78° C | 52% | 1019.1 hPa | 0 mm | - | 845 W/m² | - |
| 1777569135 | 17.22° C | 53% | 1019.1 hPa | 0 mm | - | 853 W/m² | - |
| 1777568831 | 16.67° C | 52% | 1019.1 hPa | 0 mm | - | 851 W/m² | - |
| 1777568529 | 16.67° C | 55% | 1019.5 hPa | 0 mm | - | 850 W/m² | - |
| 1777568225 | 16.67° C | 55% | 1019.5 hPa | 0 mm | - | 855 W/m² | - |
| 1777567922 | 16.67° C | 54% | 1019.5 hPa | 0 mm | - | 833 W/m² | - |
| 1777567618 | 16.11° C | 55% | 1019.5 hPa | 0 mm | - | 845 W/m² | - |
* Rain latest hour (hover to see other rain measurements)
** Current wind speed in m/s (hover to see current wind gust speed)